DW1973 Weather Reports


Display with metric or nautical units.
time (UTC)temp
F
wind
direction
speed
MPH
gust
MPH
rain 1hr
in
rain 24hr
in
rain mn
in
humidity
%
barometer
mb
20260902092424 78 194 1.0 3.0 0.00 0.00 0.00 81 1014.9
20260902091931 78 194 1.0 3.0 0.00 0.00 0.00 81 1014.9
20260902091423 78 194 0.0 1.0 0.00 0.00 0.00 81 1014.8
20260902090914 78 194 0.0 3.0 0.00 0.00 0.00 81 1014.8
20260902090424 79 194 0.0 3.0 0.00 0.00 0.00 81 1014.7
20260902085933 78 193 2.0 4.0 0.00 0.00 0.00 81 1014.6
20260902085439 78 198 2.0 4.0 0.00 0.00 0.00 81 1014.7
20260902084927 78 198 1.0 3.0 0.00 0.00 0.00 81 1014.7
20260902084419 78 198 1.0 4.0 0.00 0.00 0.00 82 1014.7
20260902083926 78 198 2.0 4.0 0.00 0.00 0.00 82 1014.7
20260902083431 78 198 2.0 4.0 0.00 0.00 0.00 82 1014.6
20260902082918 78 194 2.0 3.0 0.00 0.00 0.00 83 1014.7
20260902082455 78 194 2.0 3.0 0.00 0.00 0.00 83 1014.6
20260902081923 78 194 0.0 2.0 0.00 0.00 0.00 84 1014.7
20260902081452 78 194 0.0 1.0 0.00 0.00 0.00 84 1014.7
20260902080917 78 194 0.0 0.0 0.00 0.00 0.00 84 1014.6
20260902080427 78 194 0.0 0.0 0.00 0.00 0.00 83 1014.6
20260902075938 78 195 0.0 0.0 0.00 0.00 0.00 83 1014.7
20260902075448 78 195 0.0 0.0 0.00 0.00 0.00 83 1014.6
20260902074933 78 195 0.0 2.0 0.00 0.00 0.00 83 1014.6
20260902074443 78 195 1.0 2.0 0.00 0.00 0.00 83 1014.6
20260902073954 78 195 0.0 0.0 0.00 0.00 0.00 83 1014.7
20260902073421 78 195 0.0 0.0 0.00 0.00 0.00 83 1014.6
20260902072931 79 195 0.0 0.0 0.00 0.00 0.00 83 1014.4
20260902072438 79 195 0.0 0.0 0.00 0.00 0.00 82 1014.4
20260902071926 79 195 0.0 0.0 0.00 0.00 0.00 82 1014.3
20260902071417 79 195 0.0 0.0 0.00 0.00 0.00 82 1014.4
20260902070926 79 195 0.0 0.0 0.00 0.00 0.00 82 1014.5
20260902070416 79 195 0.0 1.0 0.00 0.00 0.00 82 1014.4
20260902065929 79 195 0.0 2.0 0.00 0.00 0.00 82 1014.5
20260902065435 79 195 1.0 2.0 0.00 0.00 0.00 82 1014.5
20260902064921 79 195 1.0 3.0 0.00 0.00 0.00 82 1014.6
20260902064428 79 195 1.0 3.0 0.00 0.00 0.00 82 1014.6
20260902063939 79 195 1.0 3.0 0.00 0.00 0.00 82 1014.6
20260902063427 79 195 1.0 3.0 0.00 0.00 0.00 82 1014.6
20260902062954 79 195 1.0 3.0 0.00 0.00 0.00 83 1014.6
20260902062417 79 195 1.0 3.0 0.00 0.00 0.00 83 1014.6
20260902061927 79 195 1.0 2.0 0.00 0.00 0.00 83 1014.6
20260902061416 79 195 0.0 2.0 0.00 0.00 0.00 83 1014.6
20260902060952 79 195 1.0 3.0 0.00 0.00 0.00 83 1014.5
20260902060416 79 42 1.0 3.0 0.00 0.00 0.00 83 1014.5
20260902055926 79 42 1.0 4.0 0.00 0.00 0.00 83 1014.5
20260902055415 79 42 2.0 4.0 0.00 0.00 0.00 83 1014.5
20260902054926 79 45 2.0 4.0 0.00 0.00 0.00 83 1014.5
20260902054417 79 46 2.0 3.0 0.00 0.00 0.00 83 1014.5
20260902053925 79 45 1.0 3.0 0.00 0.00 0.00 83 1014.5
20260902053436 79 48 1.0 3.0 0.00 0.00 0.00 83 1014.6
20260902052953 79 360 2.0 3.0 0.00 0.00 0.00 83 1014.5
20260902052439 79 51 0.0 0.0 0.00 0.00 0.00 83 1014.6
20260902051926 79 51 0.0 2.0 0.00 0.00 0.00 83 1014.6
20260902051417 80 360 0.0 2.0 0.00 0.00 0.00 83 1014.6
20260902050927 80 360 1.0 2.0 0.00 0.00 0.00 83 1014.6
20260902050433 80 360 0.0 2.0 0.00 0.00 0.00 82 1014.6
20260902045929 80 360 0.0 2.0 0.00 0.00 0.00 82 1014.6
20260902045438 80 360 0.0 2.0 0.00 0.00 0.00 82 1014.6
20260902044925 80 360 0.0 2.0 0.00 0.00 0.00 82 1014.6
20260902044434 80 360 0.0 2.0 0.00 0.00 0.00 82 1014.6
20260902043941 81 360 0.0 3.0 0.00 0.00 0.00 81 1014.6
20260902043430 81 360 1.0 3.0 0.00 0.00 0.00 81 1014.6
20260902042942 81 360 1.0 3.0 0.00 0.00 0.00 81 1014.6
20260902042431 81 360 2.0 4.0 0.00 0.00 0.00 81 1014.6
20260902041919 81 360 2.0 4.0 0.00 0.00 0.00 80 1014.7
20260902041429 81 360 2.0 3.0 0.00 0.00 0.00 80 1014.8
20260902040916 81 360 2.0 3.0 0.00 0.00 0.00 80 1014.7
20260902040423 81 360 2.0 3.0 0.00 0.00 0.00 80 1014.7
20260902035932 81 360 2.0 3.0 0.00 0.00 0.00 80 1014.6
20260902035418 82 174 1.0 3.0 0.00 0.00 0.00 79 1014.8
20260902034926 82 194 2.0 3.0 0.00 0.00 0.00 79 1014.8
20260902034418 82 197 1.0 3.0 0.00 0.00 0.00 78 1014.8
20260902033955 82 198 1.0 2.0 0.00 0.00 0.00 78 1014.8
20260902033445 82 198 1.0 3.0 0.00 0.00 0.00 78 1014.8
20260902032931 83 200 2.0 3.0 0.00 0.00 0.00 77 1014.8
20260902032421 83 200 1.0 4.0 0.00 0.00 0.00 77 1014.7
20260902031929 83 194 2.0 4.0 0.00 0.00 0.00 77 1014.8
20260902031423 83 194 2.0 4.0 0.00 0.00 0.00 76 1014.8
20260902030930 83 195 2.0 5.0 0.00 0.00 0.00 76 1014.9
20260902030417 83 199 3.0 6.0 0.00 0.00 0.00 76 1014.9
20260902025924 84 196 2.0 6.0 0.00 0.00 0.00 76 1014.8
20260902025434 84 189 2.0 4.0 0.00 0.00 0.00 76 1014.8
20260902024923 84 194 2.0 3.0 0.00 0.00 0.00 75 1014.8
20260902024430 84 202 1.0 3.0 0.00 0.00 0.00 75 1014.8
20260902023917 84 202 1.0 3.0 0.00 0.00 0.00 75 1014.8
20260902023420 84 190 2.0 3.0 0.00 0.00 0.00 75 1014.7
20260902022929 84 193 1.0 3.0 0.00 0.00 0.00 75 1014.6
20260902022417 84 196 1.0 3.0 0.00 0.00 0.00 75 1014.7
20260902021924 84 196 1.0 4.0 0.00 0.00 0.00 74 1014.7
20260902021434 85 196 1.0 4.0 0.00 0.00 0.00 74 1014.7
20260902020921 85 205 0.0 2.0 0.00 0.00 0.00 74 1014.6
20260902020431 85 205 0.0 4.0 0.00 0.00 0.00 74 1014.6
20260902015918 85 205 1.0 4.0 0.00 0.00 0.00 74 1014.6
20260902015427 85 205 1.0 3.0 0.00 0.00 0.00 73 1014.5
20260902014916 85 205 2.0 4.0 0.00 0.00 0.00 73 1014.4
20260902014426 85 205 1.0 4.0 0.00 0.00 0.00 73 1014.4
20260902013933 85 204 1.0 4.0 0.00 0.00 0.00 73 1014.3
20260902013421 85 142 2.0 4.0 0.00 0.00 0.00 73 1014.3
20260902012950 85 142 1.0 3.0 0.00 0.00 0.00 73 1014.2
20260902012419 86 137 1.0 3.0 0.00 0.00 0.00 73 1014.2
20260902011930 86 138 2.0 3.0 0.00 0.00 0.00 73 1014.1
20260902011424 86 138 2.0 3.0 0.00 0.00 0.00 72 1014.0
20260902010932 86 136 2.0 3.0 0.00 0.00 0.00 72 1014.0
20260902010421 86 134 2.0 4.0 0.00 0.00 0.00 72 1013.9
20260902005929 86 132 2.0 4.0 0.00 0.00 0.00 71 1013.9
20260902005418 87 144 2.0 5.0 0.00 0.00 0.00 71 1013.8
20260902004926 87 144 2.0 5.0 0.00 0.00 0.00 71 1013.7
20260902004417 87 144 2.0 5.0 0.00 0.00 0.00 70 1013.7
20260902003924 87 146 3.0 5.0 0.00 0.00 0.00 70 1013.8
20260902003432 88 144 2.0 4.0 0.00 0.00 0.00 70 1013.7
20260902002925 88 144 2.0 4.0 0.00 0.00 0.00 70 1013.8
20260902002433 88 143 2.0 4.0 0.00 0.00 0.00 69 1013.8
20260902001919 88 199 2.0 4.0 0.00 0.00 0.00 69 1013.9
20260902001433 89 199 3.0 4.0 0.00 0.00 0.00 69 1013.9
20260902000922 89 211 2.0 4.0 0.00 0.00 0.00 69 1013.9
20260902000431 89 196 2.0 4.0 0.00 0.00 0.00 69 1014.0
20260901235924 89 190 2.0 4.0 0.00 0.00 0.00 69 1013.9
20260901235431 89 211 2.0 5.0 0.00 0.00 0.00 69 1014.0
20260901234921 89 175 2.0 6.0 0.00 0.00 0.00 69 1013.9
20260901234429 90 214 2.0 4.0 0.00 0.00 0.00 69 1014.1
20260901233939 90 207 2.0 4.0 0.00 0.00 0.00 69 1014.0
20260901233426 90 211 3.0 8.0 0.00 0.00 0.00 69 1014.0
20260901232935 90 204 2.0 8.0 0.00 0.00 0.00 69 1014.0
20260901232440 90 209 2.0 5.0 0.00 0.00 0.00 70 1014.1
20260901231949 91 219 3.0 5.0 0.00 0.00 0.00 69 1014.1
20260901231420 91 205 3.0 5.0 0.00 0.00 0.00 69 1014.0
20260901230928 91 198 2.0 4.0 0.00 0.00 0.00 69 1014.1
20260901230415 91 198 2.0 4.0 0.00 0.00 0.00 70 1014.1
20260901225925 91 220 2.0 4.0 0.00 0.00 0.00 69 1014.1
20260901225415 91 194 1.0 3.0 0.00 0.00 0.00 70 1014.1
20260901224921 91 194 2.0 6.0 0.00 0.00 0.00 70 1014.2
20260901224431 91 221 3.0 6.0 0.00 0.00 0.00 70 1014.2
20260901223916 91 210 3.0 6.0 0.00 0.00 0.00 70 1014.1
20260901223422 91 218 2.0 4.0 0.00 0.00 0.00 69 1014.2
20260901222934 91 192 2.0 4.0 0.00 0.00 0.00 69 1014.3
20260901222423 91 214 2.0 6.0 0.00 0.00 0.00 69 1014.2
20260901221930 91 219 2.0 6.0 0.00 0.00 0.00 68 1014.1
20260901221423 91 217 2.0 6.0 0.00 0.00 0.00 69 1014.3
20260901220931 91 217 2.0 6.0 0.00 0.00 0.00 69 1014.2
20260901220418 91 201 2.0 6.0 0.00 0.00 0.00 69 1014.2
20260901215931 92 231 2.0 7.0 0.00 0.00 0.00 69 1014.2
20260901215420 92 217 3.0 7.0 0.00 0.00 0.00 70 1014.2
20260901214927 92 200 3.0 5.0 0.00 0.00 0.00 69 1014.2
20260901214417 92 194 1.0 5.0 0.00 0.00 0.00 68 1014.1
20260901213926 92 194 3.0 5.0 0.00 0.00 0.00 67 1014.1
20260901213432 92 197 3.0 6.0 0.00 0.00 0.00 68 1014.1
20260901212956 92 215 2.0 6.0 0.00 0.00 0.00 67 1014.0
20260901212423 92 200 2.0 6.0 0.00 0.00 0.00 68 1014.1
20260901211933 92 205 2.0 8.0 0.00 0.00 0.00 68 1014.1
20260901211425 92 184 3.0 8.0 0.00 0.00 0.00 67 1014.2
20260901210935 92 205 3.0 6.0 0.00 0.00 0.00 67 1014.2
20260901210423 92 211 4.0 7.0 0.00 0.00 0.00 68 1014.2
20260901205934 92 227 4.0 7.0 0.00 0.00 0.00 68 1014.2
20260901205422 92 215 4.0 7.0 0.00 0.00 0.00 66 1014.2
20260901204931 92 203 4.0 7.0 0.00 0.00 0.00 66 1014.1
20260901204420 93 224 2.0 7.0 0.00 0.00 0.00 64 1014.2
20260901203930 93 219 3.0 7.0 0.00 0.00 0.00 65 1014.3
20260901203418 93 250 3.0 6.0 0.00 0.00 0.00 66 1014.3
20260901202922 93 202 2.0 7.0 0.00 0.00 0.00 67 1014.3
20260901202429 92 182 3.0 8.0 0.00 0.00 0.00 68 1014.2
20260901201940 92 205 3.0 8.0 0.00 0.00 0.00 69 1014.2
20260901201429 92 199 3.0 7.0 0.00 0.00 0.00 68 1014.4
20260901200935 93 247 2.0 6.0 0.00 0.00 0.00 68 1014.3
20260901200422 93 211 3.0 9.0 0.00 0.00 0.00 67 1014.3
20260901195952 92 219 4.0 9.0 0.00 0.00 0.00 66 1014.4
20260901195438 92 211 2.0 7.0 0.00 0.00 0.00 68 1014.3
20260901194927 92 232 3.0 11.0 0.00 0.00 0.00 66 1014.4
20260901194419 92 218 5.0 11.0 0.00 0.00 0.00 66 1014.4
20260901193929 93 192 4.0 8.0 0.00 0.00 0.00 67 1014.4
20260901193430 92 230 3.0 6.0 0.00 0.00 0.00 67 1014.4
20260901192922 92 267 2.0 7.0 0.00 0.00 0.00 68 1014.4
20260901192429 92 224 4.0 7.0 0.00 0.00 0.00 68 1014.5
20260901191917 92 190 3.0 8.0 0.00 0.00 0.00 69 1014.4
20260901191429 92 240 3.0 10.0 0.00 0.00 0.00 68 1014.6
20260901190918 92 242 4.0 10.0 0.00 0.00 0.00 69 1014.6
20260901190425 92 261 3.0 6.0 0.00 0.00 0.00 69 1014.6
20260901185917 92 242 3.0 6.0 0.00 0.00 0.00 70 1014.7
20260901185425 92 262 3.0 6.0 0.00 0.01 0.00 69 1014.8
20260901184914 91 178 2.0 8.0 0.00 0.01 0.00 69 1014.7
20260901184426 91 225 4.0 8.0 0.00 0.01 0.00 69 1014.8
20260901183914 91 225 3.0 8.0 0.00 0.01 0.00 70 1014.8
20260901183424 91 213 4.0 9.0 0.00 0.01 0.00 69 1014.8
20260901182914 90 283 2.0 9.0 0.00 0.01 0.00 71 1015.0
20260901182447 90 216 3.0 7.0 0.00 0.01 0.00 70 1015.0
20260901181914 90 259 3.0 8.0 0.00 0.01 0.00 71 1015.1
20260901181426 90 239 5.0 8.0 0.00 0.01 0.00 71 1015.1
20260901180932 90 189 3.0 8.0 0.00 0.01 0.00 74 1015.1
20260901180417 90 215 4.0 9.0 0.00 0.01 0.00 72 1015.1
20260901175927 89 238 3.0 9.0 0.00 0.01 0.00 73 1015.1
20260901175417 89 220 3.0 6.0 0.00 0.01 0.00 73 1015.1
20260901174925 89 234 3.0 7.0 0.00 0.01 0.00 74 1015.1
20260901174416 89 222 3.0 7.0 0.00 0.01 0.00 75 1015.1
20260901173922 89 197 3.0 7.0 0.00 0.01 0.00 75 1015.1
20260901173430 89 237 4.0 7.0 0.00 0.01 0.00 75 1015.0
20260901172941 89 205 2.0 6.0 0.00 0.01 0.00 75 1015.0
20260901172429 88 207 2.0 9.0 0.00 0.01 0.00 77 1015.0
20260901171916 88 226 4.0 9.0 0.00 0.01 0.00 76 1015.1
20260901171425 87 200 3.0 6.0 0.00 0.01 0.00 76 1015.2
20260901170913 87 221 2.0 6.0 0.00 0.01 0.00 77 1015.4
20260901170448 87 199 3.0 7.0 0.00 0.01 0.00 77 1015.3
20260901165938 87 199 4.0 6.0 0.00 0.01 0.00 77 1015.3
20260901165426 86 215 2.0 6.0 0.00 0.01 0.00 79 1015.3
20260901164935 86 234 3.0 6.0 0.00 0.01 0.00 78 1015.4
20260901164424 87 188 3.0 7.0 0.00 0.01 0.00 77 1015.4
20260901163934 87 194 3.0 7.0 0.00 0.01 0.00 77 1015.4
20260901163442 87 222 3.0 5.0 0.00 0.01 0.00 77 1015.4
20260901162916 87 148 3.0 7.0 0.00 0.01 0.00 77 1015.5
20260901162420 86 198 4.0 7.0 0.00 0.01 0.00 76 1015.4
20260901161926 86 204 3.0 6.0 0.00 0.01 0.00 77 1015.4
20260901161448 86 157 3.0 6.0 0.00 0.01 0.00 77 1015.4
20260901160914 86 188 4.0 6.0 0.00 0.01 0.00 77 1015.5
20260901160420 86 192 2.0 7.0 0.00 0.01 0.00 78 1015.3
20260901155948 86 146 3.0 7.0 0.00 0.01 0.00 77 1015.4
20260901155415 85 210 3.0 6.0 0.00 0.01 0.00 77 1015.4
20260901154921 85 204 3.0 5.0 0.00 0.01 0.00 78 1015.4
20260901154431 84 219 2.0 5.0 0.00 0.01 0.00 79 1015.4
20260901153918 84 193 2.0 5.0 0.00 0.01 0.00 79 1015.4
20260901153426 84 189 0.0 5.0 0.00 0.01 0.00 79 1015.3
20260901152917 83 191 3.0 5.0 0.00 0.01 0.00 79 1015.4
20260901152449 83 223 2.0 4.0 0.00 0.01 0.00 79 1015.4
20260901151914 83 199 1.0 6.0 0.00 0.01 0.00 80 1015.4
20260901151427 82 193 3.0 6.0 0.00 0.01 0.00 80 1015.4
20260901150937 82 210 3.0 6.0 0.00 0.01 0.00 81 1015.5
20260901150425 82 207 2.0 7.0 0.00 0.01 0.00 81 1015.4
20260901145935 81 215 3.0 7.0 0.00 0.01 0.00 80 1015.6
20260901145421 81 209 2.0 5.0 0.00 0.12 0.00 81 1015.5
20260901144929 81 200 2.0 5.0 0.00 0.12 0.00 81 1015.4
20260901144440 81 200 1.0 4.0 0.00 0.12 0.00 82 1015.5
20260901143927 80 191 2.0 5.0 0.00 0.12 0.00 82 1015.4
20260901143416 80 221 2.0 5.0 0.00 0.12 0.00 83 1015.3
20260901142924 80 204 3.0 5.0 0.00 0.12 0.00 83 1015.4
20260901142429 80 194 2.0 6.0 0.00 0.12 0.00 83 1015.4
20260901141917 79 213 3.0 7.0 0.00 0.12 0.00 83 1015.3
20260901141430 79 213 4.0 7.0 0.00 0.12 0.00 83 1015.4
20260901140919 79 215 3.0 6.0 0.00 0.12 0.00 83 1015.2
20260901140426 79 207 3.0 5.0 0.00 0.12 0.00 84 1015.2
20260901135938 79 211 2.0 5.0 0.00 0.12 0.00 85 1015.3
20260901135423 79 213 4.0 5.0 0.00 0.25 0.00 85 1015.2
20260901134950 78 225 3.0 7.0 0.00 0.25 0.00 85 1015.2
20260901134421 78 181 4.0 7.0 0.00 0.25 0.00 86 1015.3
20260901133926 78 221 4.0 5.0 0.00 0.25 0.00 86 1015.3
20260901133414 77 202 1.0 6.0 0.00 0.25 0.00 87 1015.3
20260901132945 77 194 3.0 6.0 0.00 0.25 0.00 87 1015.4
20260901132415 77 211 3.0 4.0 0.00 0.25 0.00 87 1015.5
20260901131924 77 184 2.0 5.0 0.00 0.25 0.00 87 1015.6
20260901131417 76 200 2.0 4.0 0.00 0.25 0.00 88 1015.6
20260901130928 76 196 2.0 4.0 0.00 0.25 0.00 88 1015.6
20260901130413 76 198 2.0 4.0 0.00 0.25 0.00 88 1015.8
20260901125926 76 195 2.0 3.0 0.00 0.25 0.00 88 1015.8
20260901125436 76 195 1.0 3.0 0.00 0.25 0.00 88 1015.6
20260901124943 76 195 1.0 2.0 0.00 0.25 0.00 89 1015.7
20260901124434 76 195 1.0 2.0 0.00 0.25 0.00 89 1015.6
20260901123937 76 180 0.0 2.0 0.00 0.25 0.00 89 1015.7
20260901123425 76 207 1.0 3.0 0.00 0.25 0.00 89 1015.6
20260901122917 76 207 1.0 3.0 0.00 0.25 0.00 89 1015.5
20260901122426 76 207 2.0 4.0 0.00 0.25 0.00 89 1015.5
20260901121931 76 207 2.0 4.0 0.00 0.25 0.00 89 1015.4
20260901120932 75 200 0.0 3.0 0.00 0.25 0.00 90 1015.2
20260901120418 75 200 1.0 3.0 0.00 0.25 0.00 90 1015.0
20260901115931 75 200 3.0 3.0 0.00 0.25 0.00 90 1015.0
20260901115419 75 200 2.0 6.0 0.00 0.25 0.00 90 1014.9
20260901114928 75 202 2.0 4.0 0.00 0.25 0.00 90 1014.9
20260901114422 75 199 2.0 4.0 0.00 0.25 0.00 89 1014.9
20260901113926 75 198 2.0 4.0 0.00 0.25 0.00 89 1014.9
20260901113435 75 190 2.0 6.0 0.00 0.25 0.00 89 1014.9
20260901112927 75 195 2.0 6.0 0.00 0.25 0.00 89 1014.8
20260901112416 75 195 3.0 4.0 0.00 0.25 0.00 89 1014.7
20260901111922 75 197 0.0 0.0 0.00 0.25 0.00 89 1014.6
20260901111433 75 197 0.0 0.0 0.00 0.25 0.00 89 1014.5
20260901110921 75 197 0.0 0.0 0.00 0.25 0.00 89 1014.4
20260901110427 75 197 0.0 1.0 0.00 0.25 0.00 89 1014.4
20260901105918 75 197 0.0 1.0 0.00 0.25 0.00 89 1014.4
20260901105454 76 197 0.0 2.0 0.00 0.25 0.00 88 1014.4
20260901104918 75 197 0.0 3.0 0.00 0.25 0.00 89 1014.5
20260901104429 76 197 1.0 3.0 0.00 0.25 0.00 89 1014.4
20260901103918 76 197 0.0 1.0 0.00 0.25 0.00 89 1014.4
20260901103451 76 197 0.0 3.0 0.00 0.25 0.00 89 1014.5
20260901102919 76 197 2.0 3.0 0.00 0.25 0.00 89 1014.4
20260901102427 76 196 0.0 0.0 0.00 0.25 0.00 89 1014.2
20260901101916 76 196 0.0 0.0 0.00 0.25 0.00 89 1014.3
20260901101425 76 196 0.0 1.0 0.00 0.25 0.00 89 1014.3
20260901100932 76 196 0.0 1.0 0.00 0.25 0.00 88 1014.4
20260901100437 76 196 0.0 2.0 0.00 0.25 0.00 88 1014.5
20260901095948 76 196 1.0 2.0 0.00 0.25 0.00 88 1014.5
20260901095434 76 196 1.0 3.0 0.00 0.25 0.00 88 1014.4
20260901094943 76 196 1.0 3.0 0.00 0.25 0.00 88 1014.4
20260901094430 76 195 0.0 3.0 0.00 0.25 0.00 87 1014.4
20260901093921 76 196 0.0 3.0 0.00 0.25 0.00 87 1014.3
20260901093431 76 196 1.0 4.0 0.00 0.25 0.00 87 1014.3
20260901092921 76 198 2.0 4.0 0.00 0.25 0.00 87 1014.3